Date String (YYYY-MM-DD hh:mm:ss) UTC,Instrument flags,absolute air pressure of the measurement (hPa),sample flow rate (lpm),inlet stack bypass flow (lpm),air temperature of the measurement (°C),ambient temperature measured by the external sensor (°C),aerosol sample conditioner tube jacket temperature (°C),OPC LED temperature (°C),internal box temperature (°C),relative humidity of the measurement (%),span deviation,mass concentration of particles derived from Lorenz-Mie calculation of OPC scattering (μg/m³),mass concentration of particles derived from Lorenz-Mie calculation of OPC scattering (μg/m³),mass concentration of particles derived from Lorenz-Mie calculation of OPC scattering (μg/m³)
DateTimeUTC,F1_M11,P_M11,Q1_M11,Q2_M11,T1_M11,T2_M11,T3_M11,T4_M11,T5_M11,U1_M11,ZSPAN_M11,X0_M11,X2_M11,X1_M11
2023-11-11 13:00:00,SystemResetWarning,0830.8,5.00,000.00,021.8,020.9,000.0,030.1,023.1,7.3,0000.0,0006.64,0003.15,0002.36
2023-11-11 13:01:00,SystemResetWarning,0830.9,5.01,000.00,021.8,020.9,000.0,030.1,023.1,7.4,0000.0,0006.74,0003.14,0002.35
2023-11-11 13:02:00,SystemResetWarning,0830.9,5.01,000.00,021.8,021.0,000.0,030.1,023.2,7.7,0000.0,0007.39,0003.15,0002.34
2023-11-11 13:03:00,SystemResetWarning,0830.9,4.99,000.00,021.8,021.0,000.0,030.1,023.2,7.7,0000.0,0007.49,0003.17,0002.33
2023-11-11 13:04:00,SystemResetWarning,0830.9,4.99,000.00,021.8,020.9,000.0,030.1,023.3,7.8,0000.0,0007.69,0003.16,0002.33
2023-11-11 13:05:00,SystemResetWarning,0830.9,5.00,000.00,021.8,020.9,000.0,030.1,023.2,8.3,0000.0,0008.66,0003.17,0002.31
2023-11-11 13:06:00,SystemResetWarning,0830.9,5.00,000.00,021.8,020.9,000.0,030.1,023.2,8.7,0000.0,0009.34,0003.17,0002.30
2023-11-11 13:07:00,SystemResetWarning,0830.9,5.01,000.00,021.8,020.9,000.0,030.1,023.2,8.8,0000.0,0009.83,0003.19,0002.30
2023-11-11 13:08:00,SystemResetWarning,0830.8,5.01,000.00,021.8,020.9,000.0,030.1,023.2,8.8,0000.0,0009.97,0003.21,0002.30
2023-11-11 13:09:00,SystemResetWarning,0830.9,5.00,000.00,021.7,020.9,000.0,030.1,023.1,8.8,0000.0,0009.99,0003.22,0002.28
2023-11-11 13:10:00,SystemResetWarning,0830.8,4.99,000.00,021.7,020.8,000.0,030.1,023.1,8.8,0000.0,0009.74,0003.22,0002.27
2023-11-11 13:11:00,SystemResetWarning,0830.8,4.99,000.00,021.7,020.8,000.0,030.1,023.1,8.6,0000.0,0009.31,0003.24,0002.27
2023-11-11 13:12:00,SystemResetWarning,0830.8,5.01,000.00,021.7,020.8,000.0,030.1,023.1,8.0,0000.0,0009.54,0003.26,0002.27
2023-11-11 13:13:00,SystemResetWarning,0830.8,5.01,000.00,021.7,020.8,000.0,030.1,023.0,8.0,0000.0,0009.64,0003.27,0002.26
2023-11-11 13:14:00,SystemResetWarning,0830.8,5.01,000.00,021.7,020.8,000.0,030.1,023.1,7.9,0000.0,0009.56,0003.26,0002.26
2023-11-11 13:15:00,SystemResetWarning,0830.9,5.00,000.00,021.7,020.7,000.0,030.1,023.1,7.6,0000.0,0009.53,0003.25,0002.26
2023-11-11 13:16:00,SystemResetWarning,0830.8,4.99,000.00,021.7,020.7,000.0,030.1,023.1,7.5,0000.0,0008.47,0003.22,0002.28
2023-11-11 13:17:00,SystemResetWarning,0830.9,4.99,000.00,021.7,020.7,000.0,030.1,023.1,7.3,0000.0,0007.79,0003.19,0002.28
2023-11-11 13:18:00,SystemResetWarning,0830.8,4.99,000.00,021.7,020.7,000.0,030.1,023.1,7.3,0000.0,0007.15,0003.18,0002.28
2023-11-11 13:19:00,SystemResetWarning,0830.9,5.00,000.00,021.7,020.7,000.0,030.1,023.1,7.1,0000.0,0007.03,0003.16,0002.27
2023-11-11 13:20:00,SystemResetWarning,0830.9,5.01,000.00,021.7,020.7,000.0,030.1,023.1,7.2,0000.0,0007.56,0003.14,0002.28
2023-11-11 13:21:00,SystemResetWarning,0830.9,5.01,000.00,021.7,020.7,000.0,030.1,023.1,7.4,0000.0,0007.89,0003.14,0002.29
2023-11-11 13:22:00,SystemResetWarning,0831.0,5.00,000.00,021.7,020.7,000.0,030.1,023.1,7.4,0000.0,0007.91,0003.12,0002.29
2023-11-11 13:23:00,SystemResetWarning,0831.0,4.99,000.00,021.7,020.7,000.0,030.1,023.0,7.3,0000.0,0007.86,0003.12,0002.28
2023-11-11 13:24:00,SystemResetWarning,0831.0,4.99,000.00,021.7,020.6,000.0,030.1,022.9,7.6,0000.0,0007.14,0003.09,0002.29
2023-11-11 13:25:00,SystemResetWarning,0830.9,5.00,000.00,021.6,020.6,000.0,030.1,023.0,7.4,0000.0,0007.07,0003.06,0002.28
2023-11-11 13:26:00,SystemResetWarning,0830.9,5.00,000.00,021.6,020.6,000.0,030.1,022.9,7.4,0000.0,0007.14,0003.05,0002.27
2023-11-11 13:27:00,SystemResetWarning,0830.9,5.00,000.00,021.6,020.6,000.0,030.1,023.0,7.4,0000.0,0007.22,0003.04,0002.25
2023-11-11 13:28:00,SystemResetWarning,0830.9,5.00,000.00,021.6,020.6,000.0,030.0,023.0,7.3,0000.0,0007.15,0002.99,0002.26
2023-11-11 13:29:00,SystemResetWarning,0830.9,5.01,000.00,021.6,020.6,000.0,030.0,023.1,7.2,0000.0,0006.81,0002.97,0002.27
2023-11-11 13:30:00,SystemResetWarning,0830.9,5.00,000.00,021.6,020.6,000.0,030.0,023.0,7.2,0000.0,0006.51,0002.98,0002.29
2023-11-11 13:31:00,SystemResetWarning,0830.9,5.00,000.00,021.6,020.5,000.0,030.0,023.0,7.2,0000.0,0005.87,0003.00,0002.28
2023-11-11 13:32:00,SystemResetWarning,0830.9,5.00,000.00,021.6,020.5,000.0,030.0,022.9,7.2,0000.0,0005.55,0003.00,0002.28
2023-11-11 13:33:00,SystemResetWarning,0830.9,5.00,000.00,021.6,020.5,000.0,030.0,022.9,7.2,0000.0,0005.48,0003.01,0002.28
2023-11-11 13:34:00,SystemResetWarning,0830.9,5.00,000.00,021.5,020.5,000.0,030.0,022.8,7.4,0000.0,0005.87,0003.04,0002.28
2023-11-11 13:35:00,SystemResetWarning,0830.9,4.99,000.00,021.5,020.5,000.0,030.0,022.9,7.5,0000.0,0006.44,0003.07,0002.29
2023-11-11 13:36:00,SystemResetWarning,0830.9,5.00,000.00,021.5,020.4,000.0,030.0,022.9,7.4,0000.0,0006.66,0003.09,0002.30
2023-11-11 13:37:00,SystemResetWarning,0830.9,5.00,000.00,021.5,020.4,000.0,030.0,022.9,7.3,0000.0,0006.77,0003.09,0002.30
2023-11-11 13:38:00,SystemResetWarning,0830.9,5.00,000.00,021.5,020.4,000.0,030.0,022.8,7.2,0000.0,0006.84,0003.12,0002.30
2023-11-11 13:39:00,SystemResetWarning,0830.9,5.00,000.00,021.5,020.4,000.0,029.9,022.8,7.2,0000.0,0007.12,0003.18,0002.30
2023-11-11 13:40:00,SystemResetWarning,0830.9,5.00,000.00,021.5,020.4,000.0,029.9,022.9,7.2,0000.0,0007.45,0003.22,0002.29
2023-11-11 13:41:00,SystemResetWarning,0830.9,4.99,000.00,021.5,020.5,000.0,029.9,022.8,7.2,0000.0,0007.44,0003.20,0002.28
2023-11-11 13:42:00,SystemResetWarning,0830.9,5.01,000.00,021.5,020.5,000.0,029.9,022.8,7.3,0000.0,0007.23,0003.17,0002.28
2023-11-11 13:43:00,SystemResetWarning,0831.0,5.00,000.00,021.5,020.4,000.0,029.9,022.8,7.3,0000.0,0006.93,0003.16,0002.27
2023-11-11 13:44:00,SystemResetWarning,0831.1,5.01,000.00,021.5,020.5,000.0,029.9,022.9,7.3,0000.0,0006.93,0003.15,0002.28
2023-11-11 13:45:00,SystemResetWarning,0831.1,5.00,000.00,021.5,020.5,000.0,029.9,022.8,7.3,0000.0,0006.94,0003.15,0002.28
2023-11-11 13:46:00,SystemResetWarning,0831.1,5.00,000.00,021.5,020.4,000.0,029.9,022.8,7.3,0000.0,0006.87,0003.15,0002.28
2023-11-11 13:47:00,SystemResetWarning,0831.2,4.99,000.00,021.5,020.4,000.0,029.9,022.8,7.3,0000.0,0006.85,0003.17,0002.28
2023-11-11 13:48:00,SystemResetWarning,0831.2,5.00,000.00,021.5,020.5,000.0,029.9,022.8,7.3,0000.0,0006.49,0003.16,0002.28
2023-11-11 13:49:00,SystemResetWarning,0831.2,5.01,000.00,021.5,020.4,000.0,029.9,022.8,7.2,0000.0,0006.48,0003.17,0002.29
2023-11-11 13:50:00,SystemResetWarning,0831.2,5.01,000.00,021.5,020.4,000.0,029.9,022.8,7.3,0000.0,0006.35,0003.15,0002.29
2023-11-11 13:51:00,SystemResetWarning,0831.1,5.01,000.00,021.5,020.4,000.0,029.9,022.8,7.3,0000.0,0005.97,0003.13,0002.26
2023-11-11 13:52:00,SystemResetWarning,0831.1,4.99,000.00,021.5,020.5,000.0,029.9,022.8,7.3,0000.0,0006.00,0003.14,0002.25
2023-11-11 13:53:00,SystemResetWarning,0831.2,4.99,000.00,021.5,020.5,000.0,029.9,022.9,7.3,0000.0,0006.10,0003.16,0002.25
2023-11-11 13:54:00,SystemResetWarning,0831.1,5.00,000.00,021.5,020.5,000.0,029.9,022.9,7.3,0000.0,0006.37,0003.21,0002.26
2023-11-11 13:55:00,SystemResetWarning,0831.1,5.01,000.00,021.5,020.5,000.0,029.9,022.9,7.3,0000.0,0007.23,0003.21,0002.25
2023-11-11 13:56:00,SystemResetWarning,0831.1,5.01,000.00,021.5,020.5,000.0,029.9,022.9,7.3,0000.0,0007.34,0003.21,0002.25
2023-11-11 13:57:00,SystemResetWarning,0831.1,5.00,000.00,021.5,020.5,000.0,029.9,022.9,7.5,0000.0,0006.95,0003.21,0002.26
2023-11-11 13:58:00,SystemResetWarning,0831.1,4.99,000.00,021.5,020.5,000.0,029.9,022.8,7.4,0000.0,0007.05,0003.20,0002.26
2023-11-11 13:59:00,SystemResetWarning,0831.1,4.99,000.00,021.5,020.5,000.0,029.9,022.9,7.4,0000.0,0007.26,0003.22,0002.26
